[[{"header":{"parameterUnit":"m.s-1","parameterCategory":1,"la1":30.2991,"la2":30.254,"lo1":-89.0895,"lo2":-89.0444,"dy":0.0017,"dx":0.0017,"nx":28,"ny":28,"refTime":"2025-09-14T03:00:00:Z","depth":0,"parameterNumber":2,"parameterNumberName":"U-component_of_WINDS"},"data":[0,0,0,0,0,0,0,0,0,0,0,0,0,0,0,0,0,0,0,0,0,0,0,0,0,0,0,0,0,0,0,0,0,0,0,0,0,0,0,0,0,0,0,0,0,0,0,0,0,0,0,0,0,0,0,0,0,0,0.1368,0.1367,0,0.1284,0.1283,0.1283,0.1201,0.12,0.1199,0.1198,0.1111,0.111,0.1108,0,0,0,0,0,0,0,0,0,0,0,0,0,0.1456,0.1455,0.1368,0.1367,0.1366,0.1285,0.1283,0.1282,0.1201,0.12,0.1198,0.1197,0.1111,0.111,0.1108,0,0,0,0,0,0,0,0,0,0,0,0,0,0.14,0.1454,0.1368,0.1316,0.131,0.1285,0.1283,0.1282,0.1201,0.12,0.1198,0.1197,0.1112,0.111,0.1108,0.1128,0,0,0.1102,0.1101,0,0,0,0,0,0,0,0,0.1403,0.1396,0.1325,0.1319,0.1313,0.1251,0.1282,0.123,0.1202,0.1243,0.1198,0.1196,0.1159,0.1153,0.1141,0.1124,0.112,0.1102,0.1101,0.11,0.1099,0,0,0,0,0,0,0,0.1407,0.14,0.1335,0.1324,0.1317,0.1296,0.1286,0.1272,0.1211,0.1239,0.1233,0.1224,0.1155,0.1143,0.1138,0.1119,0.1102,0.11,0.1099,0.1098,0.1112,0.1113,0,0,0,0,0,0,0.1419,0.1403,0.1338,0.1332,0.1355,0.1295,0.1284,0.1273,0.1211,0.12,0.1225,0.1221,0.1147,0.1141,0.1135,0.1153,0.11,0.1098,0.1097,0.111,0.1112,0.1114,0,0,0,0,0,0,0.1421,0.1414,0.1341,0.1366,0.1355,0.1296,0.1283,0.1272,0.1259,0.12,0.1189,0.1224,0.1146,0.1138,0.113,0.1149,0.1097,0.1095,0.1108,0.1111,0.1113,0.119,0,0,0,0,0,0,0.1424,0.1415,0.1423,0.1367,0.1354,0.1338,0.1284,0.1272,0.1256,0.1249,0.1196,0.1186,0.1144,0.1133,0.1128,0.1145,0.1094,0.1107,0.111,0.1112,0.1186,0.1195,0.1203,0,0,0,0,0,0.1428,0.1448,0.1424,0.1416,0.1362,0.134,0.1332,0.1284,0.1258,0.1265,0.1227,0.1187,0.1148,0.1133,0.1126,0.1143,0.1105,0.1109,0.1112,0.1182,0.1193,0.1203,0,0,0,0,0,0,0.1507,0.144,0.1412,0.1415,0.1384,0.1326,0.1333,0.1297,0.1273,0.1267,0.1207,0.1196,0.1195,0.1168,0.1153,0.1158,0.1121,0.1123,0.1176,0.1186,0.1195,0.1201,0.1092,0,0,0,0,0,0.1525,0.1513,0.1454,0.1462,0.1448,0.1393,0.1382,0.1347,0.1312,0.1298,0.126,0.1227,0.1207,0.1195,0.1173,0.1181,0.1168,0.1189,0.1198,0.1205,0.1208,0.1209,0.1218,0.1125,0.1125,0.1125,0,0,0.1562,0.1523,0.1519,0.1477,0.1449,0.1437,0.1383,0.1373,0.1363,0.1297,0.1287,0.1257,0.1217,0.1217,0.1215,0.1195,0.123,0.121,0.1216,0.1215,0.1214,0.1222,0.123,0.1128,0.1127,0.1127,0,0,0.1623,0.1593,0.1596,0.1569,0.1527,0.149,0.1491,0.1438,0.1416,0.1405,0.1355,0.1342,0.1309,0.1282,0.1264,0.1314,0.1276,0.1308,0.1353,0.1355,0.1362,0.1368,0.1385,0.1392,0.1311,0.1311,0.1311,0,0.1674,0.1655,0.1602,0.1595,0.1577,0.1517,0.1519,0.1495,0.1448,0.1437,0.1415,0.1371,0.134,0.1332,0.1344,0.1332,0.133,0.1314,0.1365,0.1371,0.1376,0.1392,0.1398,0.1315,0.1315,0.1314,0.1314,0,0.1719,0.1706,0.1714,0.167,0.1653,0.1651,0.1598,0.1587,0.1553,0.1519,0.1508,0.1468,0.1436,0.1432,0.1399,0.1419,0.1408,0.1376,0.1337,0.139,0.1403,0.1409,0.1321,0.132,0.1318,0.1317,0,0,0.1829,0.1756,0.1759,0.1738,0.1687,0.1675,0.167,0.1639,0.1631,0.16,0.1593,0.1566,0.1536,0.1516,0.1479,0.1481,0.1522,0.1448,0.1447,0.1463,0.1541,0.1565,0.1573,0.1497,0.1497,0.1498,0.1544,0,0.1882,0.1869,0.1821,0.1821,0.1808,0.175,0.1744,0.1712,0.1679,0.1663,0.1626,0.1608,0.157,0.1557,0.1556,0.1517,0.1537,0.1513,0.1489,0.1489,0.1502,0.158,0.1606,0.1652,0.1549,0.155,0.1551,0,0.1941,0.1914,0.1914,0.1862,0.1855,0.1851,0.1819,0.1804,0.1765,0.1741,0.1718,0.1677,0.1666,0.163,0.1614,0.16,0.1587,0.1566,0.1567,0.1563,0.1524,0.1579,0.1665,0.1672,0.1559,0.1558,0.1558,0,0.2022,0.1985,0.198,0.1964,0.1903,0.1901,0.1876,0.1836,0.182,0.1791,0.178,0.1751,0.1735,0.1713,0.1664,0.1642,0.1654,0.1614,0.1633,0.1635,0.1639,0.1639,0.1725,0.1631,0.1631,0.1631,0.1631,0,0.2085,0.2087,0.2015,0.2012,0.2012,0.1956,0.1958,0.1926,0.1891,0.188,0.1827,0.1818,0.1755,0.1738,0.17,0.1692,0.1686,0.1665,0.1655,0.167,0.1673,0.1661,0.1657,0.1632,0.1632,0.1632,0.1631,0,0.2175,0.2127,0.2117,0.206,0.2046,0.2048,0.1999,0.1993,0.1957,0.1944,0.1937,0.188,0.1857,0.1807,0.1771,0.1745,0.1747,0.1729,0.176,0.1754,0.1776,0.1775,0.1857,0.1865,0.1767,0.1768,0.1769,0,0.2219,0.2219,0.2162,0.2151,0.2128,0.2111,0.2094,0.2039,0.2024,0.1979,0.1979,0.1952,0.1928,0.1894,0.1849,0.1821,0.1801,0.1832,0.1797,0.1812,0.1801,0.1802,0.1802,0.184,0.1842,0.1843,0.1843,0,0.2302,0.2278,0.2257,0.2227,0.2209,0.2183,0.2154,0.2147,0.2085,0.207,0.2047,0.2028,0.1991,0.1964,0.1929,0.1902,0.1862,0.1855,0.1858,0.1873,0.1891,0.1882,0.1782,0.1853,0.1852,0.1852,0.1851,0.1851,0.237,0.2367,0.2327,0.2304,0.2276,0.225,0.2242,0.2204,0.2183,0.2149,0.2117,0.2096,0.2056,0.2004,0.198,0.1962,0.1942,0.1947,0.1948,0.195,0.1956,0.1894,0.1955,0.1955,0.1955,0.1954,0.1954,0,0.2451,0.2421,0.2401,0.2362,0.2344,0.2308,0.2274,0.2261,0.2244,0.221,0.2187,0.2159,0.2133,0.2085,0.2055,0.205,0.2031,0.2044,0.2044,0.2038,0.1976,0.1976,0.206,0.206,0.2059,0.2059,0.2059,0.2059,0.249,0.2483,0.2454,0.2432,0.2402,0.2382,0.2365,0.234,0.2313,0.2284,0.2262,0.2231,0.2191,0.2158,0.2132,0.2118,0.2109,0.2128,0.2109,0.2052,0.2042,0.2033,0.2033,0.2127,0.2127,0.2172,0.2173,0.2173]},{"header":{"parameterUnit":"m.s-1","parameterCategory":1,"la1":30.2991,"la2":30.254,"lo1":-89.0895,"lo2":-89.0444,"dy":0.0017,"dx":0.0017,"nx":28,"ny":28,"refTime":"2025-09-14T03:00:00:Z","depth":0,"parameterNumber":3,"parameterNumberName":"V-component_of_WINDS"},"data":[0,0,0,0,0,0,0,0,0,0,0,0,0,0,0,0,0,0,0,0,0,0,0,0,0,0,0,0,0,0,0,0,0,0,0,0,0,0,0,0,0,0,0,0,0,0,0,0,0,0,0,0,0,0,0,0,0,0,-2.1058,-2.1059,0,-2.1148,-2.1149,-2.115,-2.1151,-2.115,-2.1149,-2.1148,-2.1238,-2.1241,-2.1244,0,0,0,0,0,0,0,0,0,0,0,0,0,-2.0887,-2.089,-2.1058,-2.1059,-2.106,-2.1147,-2.1149,-2.115,-2.1151,-2.115,-2.1149,-2.1147,-2.1236,-2.124,-2.1245,0,0,0,0,0,0,0,0,0,0,0,0,0,-2.0967,-2.0891,-2.1058,-2.1071,-2.1074,-2.1147,-2.1149,-2.115,-2.1152,-2.115,-2.1148,-2.1147,-2.1235,-2.124,-2.1245,-2.131,0,0,-2.1261,-2.1263,0,0,0,0,0,0,0,0,-2.0963,-2.0973,-2.1068,-2.1071,-2.1073,-2.1137,-2.1121,-2.1204,-2.1152,-2.1122,-2.1148,-2.1146,-2.1205,-2.1213,-2.1233,-2.1315,-2.1318,-2.1261,-2.1264,-2.1267,-2.1268,0,0,0,0,0,0,0,-2.0957,-2.097,-2.1093,-2.107,-2.1073,-2.1073,-2.1082,-2.1137,-2.1172,-2.1124,-2.1125,-2.1135,-2.1206,-2.1228,-2.1235,-2.132,-2.1261,-2.1266,-2.1269,-2.1271,-2.146,-2.1462,0,0,0,0,0,0,-2.0949,-2.0965,-2.109,-2.1096,-2.1013,-2.1077,-2.1088,-2.1118,-2.1171,-2.1178,-2.1137,-2.1135,-2.122,-2.1229,-2.1238,-2.1318,-2.1267,-2.1271,-2.1274,-2.1458,-2.146,-2.1462,0,0,0,0,0,0,-2.0945,-2.096,-2.1087,-2.1031,-2.1047,-2.1082,-2.1116,-2.112,-2.1142,-2.1181,-2.1187,-2.1153,-2.1219,-2.1231,-2.1293,-2.1321,-2.1274,-2.1278,-2.1456,-2.1459,-2.1461,-2.1479,0,0,0,0,0,0,-2.094,-2.0959,-2.0984,-2.1031,-2.105,-2.114,-2.1117,-2.1123,-2.1152,-2.115,-2.1197,-2.1203,-2.1219,-2.1285,-2.1298,-2.1328,-2.1282,-2.1453,-2.1457,-2.146,-2.1476,-2.1482,-2.1487,0,0,0,0,0,-2.0934,-2.0985,-2.0985,-2.1001,-2.1082,-2.1142,-2.1152,-2.117,-2.1154,-2.118,-2.1204,-2.1202,-2.1317,-2.1291,-2.1306,-2.1338,-2.1451,-2.1456,-2.146,-2.1473,-2.1481,-2.1487,0,0,0,0,0,0,-2.0939,-2.0991,-2.0992,-2.106,-2.1097,-2.1142,-2.1175,-2.1177,-2.1218,-2.1215,-2.1234,-2.1245,-2.1306,-2.1328,-2.1299,-2.1404,-2.1382,-2.1389,-2.1387,-2.1395,-2.14,-2.1393,-2.1287,0,0,0,0,0,-2.0949,-2.0993,-2.1036,-2.1091,-2.111,-2.1139,-2.1166,-2.1176,-2.1214,-2.123,-2.1259,-2.1295,-2.134,-2.1368,-2.1411,-2.1479,-2.149,-2.1508,-2.1514,-2.1519,-2.1525,-2.1562,-2.1571,-2.1477,-2.1477,-2.1476,0,0,-2.0967,-2.1001,-2.1028,-2.1093,-2.1123,-2.1168,-2.1152,-2.12,-2.1234,-2.1237,-2.1297,-2.132,-2.1362,-2.1427,-2.1457,-2.1447,-2.1553,-2.1524,-2.1527,-2.1531,-2.1568,-2.1577,-2.1585,-2.148,-2.1479,-2.1479,0,0,-2.1025,-2.1056,-2.1105,-2.1136,-2.1181,-2.12,-2.1212,-2.1258,-2.1273,-2.1334,-2.1337,-2.1377,-2.1453,-2.1484,-2.1509,-2.1579,-2.1579,-2.1593,-2.1622,-2.1659,-2.1667,-2.1673,-2.1698,-2.1707,-2.1599,-2.1599,-2.1599,0,-2.1043,-2.1112,-2.113,-2.1179,-2.1208,-2.1213,-2.1264,-2.1292,-2.1349,-2.1368,-2.1357,-2.1453,-2.1481,-2.1554,-2.1571,-2.1592,-2.1606,-2.1587,-2.1664,-2.1671,-2.1677,-2.1702,-2.1711,-2.16,-2.16,-2.16,-2.16,0,-2.1131,-2.1179,-2.1214,-2.1269,-2.1302,-2.1351,-2.1377,-2.1408,-2.1416,-2.1436,-2.1498,-2.1533,-2.1584,-2.1602,-2.1609,-2.1676,-2.1668,-2.166,-2.1638,-2.1688,-2.1711,-2.172,-2.1602,-2.1602,-2.1601,-2.1601,0,0,-2.1194,-2.126,-2.1272,-2.1298,-2.1349,-2.1386,-2.1436,-2.1486,-2.1512,-2.1551,-2.1593,-2.1658,-2.1651,-2.168,-2.1691,-2.1723,-2.1777,-2.1711,-2.1713,-2.1722,-2.1852,-2.1857,-2.1868,-2.1777,-2.1779,-2.1781,-2.1848,0,-2.1257,-2.1346,-2.1364,-2.1441,-2.1486,-2.1492,-2.1536,-2.1571,-2.1592,-2.1633,-2.1655,-2.1701,-2.1689,-2.1706,-2.1738,-2.1763,-2.1803,-2.1759,-2.1816,-2.1818,-2.1805,-2.188,-2.1885,-2.1948,-2.1857,-2.1859,-2.186,0,-2.1342,-2.1384,-2.1466,-2.1512,-2.1531,-2.1569,-2.1617,-2.1656,-2.1697,-2.171,-2.1742,-2.175,-2.1802,-2.1779,-2.185,-2.182,-2.1844,-2.186,-2.1863,-2.1868,-2.1841,-2.1887,-2.1968,-2.1977,-2.1874,-2.1873,-2.1872,0,-2.1379,-2.1456,-2.1515,-2.1537,-2.1592,-2.1619,-2.1643,-2.1682,-2.1711,-2.1753,-2.1772,-2.1819,-2.1844,-2.188,-2.1901,-2.1882,-2.1971,-2.1949,-2.1983,-2.1982,-2.2,-2.1999,-2.2086,-2.2017,-2.2017,-2.2017,-2.2016,0,-2.1447,-2.1497,-2.1533,-2.1569,-2.1625,-2.1646,-2.17,-2.1724,-2.1759,-2.18,-2.1808,-2.1846,-2.1871,-2.1912,-2.1929,-2.1985,-2.1997,-2.2008,-2.2012,-2.2008,-2.2006,-2.2023,-2.2019,-2.2019,-2.2019,-2.2018,-2.2018,0,-2.1497,-2.1524,-2.1588,-2.1636,-2.1649,-2.1688,-2.1728,-2.1763,-2.1785,-2.1836,-2.1849,-2.1883,-2.1932,-2.1956,-2.2017,-2.2028,-2.2092,-2.2093,-2.2078,-2.208,-2.2112,-2.2108,-2.2213,-2.2228,-2.2149,-2.215,-2.215,0,-2.1539,-2.1577,-2.1629,-2.1657,-2.1682,-2.1728,-2.1758,-2.178,-2.1811,-2.1861,-2.189,-2.194,-2.1981,-2.206,-2.2089,-2.2136,-2.2138,-2.2171,-2.2145,-2.2139,-2.2138,-2.2135,-2.2139,-2.2176,-2.2176,-2.2177,-2.2178,0,-2.161,-2.1621,-2.1665,-2.1713,-2.1749,-2.1788,-2.1826,-2.1849,-2.1877,-2.1912,-2.1963,-2.1995,-2.2057,-2.2107,-2.2156,-2.218,-2.2184,-2.2186,-2.2196,-2.2192,-2.2181,-2.2187,-2.2091,-2.2183,-2.2183,-2.2182,-2.2182,-2.2182,-2.1657,-2.1692,-2.1734,-2.1782,-2.1813,-2.1849,-2.1885,-2.1911,-2.1954,-2.2008,-2.2018,-2.2073,-2.2113,-2.2179,-2.2205,-2.2248,-2.224,-2.2255,-2.2259,-2.2262,-2.2264,-2.2175,-2.2257,-2.2257,-2.2257,-2.2256,-2.2256,0,-2.1728,-2.1756,-2.18,-2.1854,-2.1892,-2.1893,-2.1936,-2.1967,-2.2015,-2.2053,-2.2093,-2.2152,-2.22,-2.2234,-2.2283,-2.231,-2.2313,-2.2322,-2.232,-2.2326,-2.2268,-2.2254,-2.2319,-2.2319,-2.2319,-2.2319,-2.2319,-2.2319,-2.177,-2.1828,-2.1845,-2.1919,-2.1947,-2.2,-2.2025,-2.2058,-2.2088,-2.2154,-2.2194,-2.2216,-2.2252,-2.2304,-2.2348,-2.2357,-2.2374,-2.2383,-2.2392,-2.2337,-2.233,-2.2324,-2.2311,-2.2387,-2.2387,-2.2447,-2.2447,-2.2448]}]]